World > North America > United States > Iowa

Defiance, Iowa Regional Weather

Lat: 41.83N, Lon: 95.34W
Wx Zone: IAZ056Web Search
Defiance Weather Warning NWS WEATHER ALERT FOR THE DEFIANCE, IA AREA - Issued: 345 AM CDT Sun May 9 2021 Defiance Weather Warning  

Ads allow us to feed your daily addiction for the world's greatest weather information. We're determined to offer quality sponsors, in the least annoying way possible.

Feedback


°F Click to change Defiance hourly weather to Imperial units.Click to change Defiance hourly weather to Metric units. °C
Defiance Weather Map
UTC Time: 5/9/2021, 16:06
Your Time:

Defiance, IA Regional Weather

Expires:202105091700;;846450
ASUS43 KDMX 091606
RWRIA 

WEATHER ROUNDUP FOR IOWA
NATIONAL WEATHER SERVICE DES MOINES IA
1100 AM CDT SUN MAY 09 2021

NOTE: "FAIR" INDICATES FEW OR NO CLOUDS BELOW 12,000 FEET WITH NO
SIGNIFICANT WEATHER AND/OR OBSTRUCTIONS TO VISIBILITY.

* - THESE STATIONS ARE NOT NWS STATIONS...THUS NOT UNDER NWS
QUALITY CONTROL.  THEY ALSO DO NOT REPORT WEATHER SUCH 
AS PRECIPITATION OR FOG.  


IAZ055>058-069>071-079>083-090>094-091700-
   SOUTHWEST IOWA
  
CITY           SKY/WX    TMP DP  RH WIND       PRES   REMARKS
ATLANTIC *     MOSUNNY   48  41  76 NE14      30.02R                  
AUDUBON *      PTSUNNY   48  43  81 N10       30.04R                  
CLARINDA *     CLOUDY    45  43  93 NE17      30.02R                  
COUNCIL BLFS * CLOUDY    46  41  81 NE12G17   30.02R                  
CRESTON *      CLOUDY    45  45 100 NE17G23   30.00R                  
HARLAN  *      CLOUDY    46  43  87 NE13G23   30.04R                  
LAMONI         CLOUDY    44  39  82 NE13      29.99R                  
RED OAK *      CLOUDY    46  39  76 NE16G24   30.02R                  
SHENANDOAH *   CLOUDY    46  43  87 NE18      30.00S                  
$$
 

SKY/WX - Weather  TMP - Temperature  DP - Dew Point  RH - Relative Humidity
WIND - Wind Direction/Speed PRES - Barometric Pressure VSB - Visibility
WCI - Wind Chill Index E13G22 Wind - East Wind 13 mph/Gusts of 22 mph